Tracking 19476 objects as of 17-Jan-2019
HD Live streaming from Space Station
objects crossing your sky now

OV2-1

Track OV2-1 now!
10-day predictions
OV2-1 is classified as:


NORAD ID: 1641
Int'l Code: 1965-082C
Perigee: 708.6 km
Apogee: 736.1 km
Inclination: 32.3 °
Period: 99.1 minutes
Semi major axis: 7093 km
RCS: 0.777 m2 (medium)
Launch date: October 15, 1965
Source: United States (US)
Launch site: AIR FORCE EASTERN TEST RANGE (AFETR)
aabbcc
Your satellite tracking list
Your tracking list is empty




NASA's NSSDC Master Catalog

Two Line Element Set (TLE):
1  1641U 65082C   19016.81013133 +.00000047 +00000-0 +35215-5 0  9992
2  1641 032.2961 152.0157 0019348 341.1697 018.8232 14.53205587823012
Source of the keplerian elements: AFSPC